Location: Unspecified
(0.0000°N, 0.0000°E)
Time: 13:22:41
(UTC+00:00)

ISS - Pass Details

Date: 23 August 2019
Orbit: 410 x 420 km, 51.6° (Epoch: 21 August)

Event Time Altitude Azimuth Distance (km) Brightness Sun altitude
Exits shadow 04:21:32 11° 8° (N) 1,413 -0.9 -24.8°
Drops below altitude 10° 04:21:41 10° 10° (N) 1,469 -0.8 -24.7°
Sets 04:23:55 0° 21° (NNE) 2,329 0.5 -24.2°
